LAN1536 SCIP-SCEL

Flight info

Callsign LAN1536
Flight time N/A
Altitude 33000
Route ASALA2J ASALA UL348 MUGUK/N0451F350 UL348 LOKOL DCT SIMOK SIMOK7B
Aircraft A319/M-SDE3FGHIRWY/LB1

Departure

Time 2026-05-04 18:10
Airport Mataveri International Airport (SCIP)

Arrival

Time N/A
Airport Comodoro Arturo Merino Benítez International Airport (SCEL)
Time Latitude Longitude Altitude Speed Heading
2026-05-04 18:05 -27.16027 -109.42918 151 ft 0 kts 298°
2026-05-04 18:07 -27.16022 -109.42930 151 ft 4 kts 298°
2026-05-04 18:07 -27.16017 -109.42967 152 ft 5 kts 258°
2026-05-04 18:07 -27.16030 -109.42989 154 ft 1 kts 227°
2026-05-04 18:07 -27.16038 -109.42996 155 ft 4 kts 219°
2026-05-04 18:08 -27.16073 -109.43025 157 ft 9 kts 225°
2026-05-04 18:08 -27.16054 -109.43120 157 ft 18 kts 298°
2026-05-04 18:08 -27.15990 -109.43257 156 ft 21 kts 297°
2026-05-04 18:08 -27.15919 -109.43411 154 ft 23 kts 297°
2026-05-04 18:09 -27.15770 -109.43642 154 ft 14 kts 246°
2026-05-04 18:09 -27.15843 -109.43585 154 ft 12 kts 115°
2026-05-04 18:10 -27.15977 -109.43287 156 ft 79 kts 117°
2026-05-04 18:10 -27.16340 -109.42498 156 ft 146 kts 117°
2026-05-04 18:10 -27.16878 -109.41325 326 ft 180 kts 118°
2026-05-04 18:10 -27.17430 -109.40102 1067 ft 175 kts 120°
2026-05-04 18:11 -27.17993 -109.38888 1714 ft 180 kts 120°
2026-05-04 18:11 -27.18599 -109.37567 1971 ft 199 kts 119°
2026-05-04 18:11 -27.19265 -109.36105 2130 ft 223 kts 119°
2026-05-04 18:11 -27.19711 -109.35127 2302 ft 237 kts 120°
2026-05-04 18:12 -27.19872 -109.34769 2401 ft 239 kts 118°
2026-05-04 18:12 -27.20638 -109.33065 3021 ft 248 kts 118°
2026-05-04 18:12 -27.21421 -109.31328 3785 ft 252 kts 118°
2026-05-04 18:12 -27.22217 -109.29570 4549 ft 253 kts 118°
2026-05-04 18:13 -27.23027 -109.27789 5257 ft 258 kts 120°
2026-05-04 18:13 -27.23855 -109.25969 5863 ft 266 kts 120°
2026-05-04 18:13 -27.25639 -109.22210 7064 ft 278 kts 124°
2026-05-04 18:14 -27.26644 -109.20335 7670 ft 282 kts 125°
2026-05-04 18:14 -27.27669 -109.18475 8289 ft 285 kts 125°
2026-05-04 18:14 -27.28721 -109.16570 8933 ft 288 kts 125°
2026-05-04 18:15 -27.30847 -109.12680 10135 ft 296 kts 125°
2026-05-04 18:15 -27.33129 -109.08479 10473 ft 333 kts 124°
2026-05-04 18:15 -27.34363 -109.06195 10594 ft 350 kts 124°
2026-05-04 18:16 -27.35642 -109.03812 10867 ft 360 kts 124°
2026-05-04 18:16 -27.36943 -109.01380 11309 ft 365 kts 124°
2026-05-04 18:16 -27.38254 -108.98925 11772 ft 367 kts 124°
2026-05-04 18:17 -27.40910 -108.93954 12706 ft 374 kts 124°
2026-05-04 18:17 -27.42258 -108.91437 13161 ft 377 kts 124°
2026-05-04 18:17 -27.44985 -108.86347 14059 ft 383 kts 124°
2026-05-04 18:18 -27.46365 -108.83769 14461 ft 385 kts 124°
2026-05-04 18:18 -27.47633 -108.81096 14852 ft 391 kts 116°
2026-05-04 18:18 -27.48712 -108.78274 15256 ft 393 kts 116°
2026-05-04 18:18 -27.49780 -108.75432 15643 ft 396 kts 115°
2026-05-04 18:19 -27.51920 -108.69668 16412 ft 401 kts 115°
2026-05-04 18:19 -27.53000 -108.66755 16811 ft 404 kts 115°
2026-05-04 18:19 -27.54087 -108.63829 17204 ft 407 kts 115°
2026-05-04 18:20 -27.55184 -108.60877 17597 ft 409 kts 115°
2026-05-04 18:20 -27.56288 -108.57911 18002 ft 412 kts 115°
2026-05-04 18:20 -27.57401 -108.54927 18394 ft 414 kts 115°
2026-05-04 18:20 -27.58518 -108.51923 18755 ft 417 kts 115°
2026-05-04 18:21 -27.59640 -108.48897 19100 ft 419 kts 115°
2026-05-04 18:21 -27.60768 -108.45856 19445 ft 422 kts 115°
2026-05-04 18:21 -27.61903 -108.42796 19800 ft 424 kts 115°
2026-05-04 18:21 -27.63028 -108.39757 20134 ft 427 kts 115°
2026-05-04 18:22 -27.64176 -108.36657 20481 ft 429 kts 115°
2026-05-04 18:22 -27.65329 -108.33543 20813 ft 431 kts 115°
2026-05-04 18:22 -27.66487 -108.30412 21133 ft 433 kts 115°
2026-05-04 18:22 -27.67654 -108.27259 21452 ft 435 kts 115°
2026-05-04 18:23 -27.68822 -108.24100 21758 ft 438 kts 115°
2026-05-04 18:23 -27.69995 -108.20919 22053 ft 440 kts 115°
2026-05-04 18:23 -27.71174 -108.17722 22342 ft 442 kts 115°
2026-05-04 18:23 -27.72357 -108.14510 22628 ft 444 kts 115°
2026-05-04 18:24 -27.73546 -108.11282 22912 ft 446 kts 115°
2026-05-04 18:24 -27.74737 -108.08046 23201 ft 448 kts 115°
2026-05-04 18:24 -27.75919 -108.04832 23449 ft 450 kts 115°
2026-05-04 18:24 -27.77062 -108.01712 23695 ft 453 kts 115°
2026-05-04 18:25 -27.77475 -108.00584 23779 ft 453 kts 115°
2026-05-04 18:25 -27.78682 -107.97289 24012 ft 455 kts 115°
2026-05-04 18:25 -27.79896 -107.93978 24240 ft 457 kts 115°
2026-05-04 18:26 -27.81113 -107.90656 24469 ft 459 kts 115°
2026-05-04 18:26 -27.82335 -107.87315 24695 ft 460 kts 115°
2026-05-04 18:26 -27.83558 -107.83959 24930 ft 462 kts 115°
2026-05-04 18:26 -27.84782 -107.80599 25157 ft 463 kts 115°
2026-05-04 18:27 -27.86011 -107.77223 25382 ft 465 kts 115°
2026-05-04 18:27 -27.87241 -107.73840 25611 ft 467 kts 115°
2026-05-04 18:27 -27.88478 -107.70443 25831 ft 468 kts 115°
2026-05-04 18:27 -27.89717 -107.67031 26049 ft 470 kts 115°
2026-05-04 18:28 -27.90962 -107.63599 26267 ft 471 kts 115°
2026-05-04 18:28 -27.92207 -107.60166 26488 ft 473 kts 115°
2026-05-04 18:28 -27.93461 -107.56723 26704 ft 474 kts 115°
2026-05-04 18:28 -27.94718 -107.53270 26919 ft 476 kts 115°
2026-05-04 18:29 -27.95960 -107.49840 27140 ft 477 kts 115°
2026-05-04 18:29 -27.97217 -107.46354 27345 ft 479 kts 115°
2026-05-04 18:29 -27.98480 -107.42846 27551 ft 481 kts 115°
2026-05-04 18:29 -27.99746 -107.39327 27762 ft 482 kts 115°
2026-05-04 18:30 -28.02193 -107.32242 28166 ft 486 kts 112°
2026-05-04 18:30 -28.03309 -107.28629 28363 ft 487 kts 111°
2026-05-04 18:30 -28.04381 -107.24981 28559 ft 489 kts 110°
2026-05-04 18:31 -28.05428 -107.21357 28743 ft 490 kts 110°
2026-05-04 18:31 -28.06493 -107.17683 28931 ft 491 kts 110°
2026-05-04 18:31 -28.07576 -107.13997 29115 ft 493 kts 111°
2026-05-04 18:31 -28.08678 -107.10311 29295 ft 494 kts 111°
2026-05-04 18:32 -28.09789 -107.06628 29475 ft 495 kts 111°
2026-05-04 18:32 -28.10912 -107.02933 29710 ft 495 kts 111°
2026-05-04 18:32 -28.12027 -106.99255 30044 ft 493 kts 111°
2026-05-04 18:32 -28.13136 -106.95580 30334 ft 492 kts 111°
2026-05-04 18:33 -28.14224 -106.91949 30567 ft 491 kts 111°
2026-05-04 18:33 -28.15319 -106.88289 30783 ft 491 kts 111°
2026-05-04 18:33 -28.16417 -106.84621 31006 ft 490 kts 111°
2026-05-04 18:33 -28.17515 -106.80957 31224 ft 490 kts 111°
2026-05-04 18:34 -28.18607 -106.77307 31439 ft 490 kts 111°
2026-05-04 18:34 -28.19701 -106.73640 31654 ft 489 kts 111°
2026-05-04 18:34 -28.20791 -106.69982 31882 ft 489 kts 111°
2026-05-04 18:34 -28.21880 -106.66329 32125 ft 488 kts 111°
2026-05-04 18:35 -28.22963 -106.62688 32355 ft 488 kts 111°
2026-05-04 18:35 -28.24043 -106.59047 32580 ft 487 kts 111°
2026-05-04 18:35 -28.25122 -106.55402 32801 ft 487 kts 111°
2026-05-04 18:35 -28.26198 -106.51765 33024 ft 486 kts 111°
2026-05-04 18:36 -28.27274 -106.48130 33215 ft 486 kts 111°
2026-05-04 18:36 -28.29410 -106.40906 33258 ft 484 kts 111°
2026-05-04 18:37 -28.31546 -106.33660 33261 ft 484 kts 111°
2026-05-04 18:37 -28.33673 -106.26421 33253 ft 483 kts 111°
2026-05-04 18:38 -28.35802 -106.19176 33250 ft 483 kts 111°
2026-05-04 18:38 -28.37922 -106.11938 33248 ft 483 kts 111°
2026-05-04 18:39 -28.40026 -106.04744 33247 ft 482 kts 111°
2026-05-04 18:39 -28.42140 -105.97500 33258 ft 482 kts 111°
2026-05-04 18:40 -28.44249 -105.90261 33254 ft 482 kts 111°
2026-05-04 18:40 -28.46363 -105.83086 33249 ft 481 kts 111°
2026-05-04 18:41 -28.48502 -105.75878 33244 ft 481 kts 111°
2026-05-04 18:41 -28.50641 -105.68649 33242 ft 481 kts 111°
2026-05-04 18:42 -28.52757 -105.61434 33255 ft 481 kts 111°
2026-05-04 18:42 -28.54860 -105.54247 33251 ft 481 kts 111°
2026-05-04 18:43 -28.56966 -105.47023 33231 ft 481 kts 111°
2026-05-04 18:43 -28.58718 -105.41006 33235 ft 481 kts 111°
2026-05-04 18:44 -28.60825 -105.33774 33228 ft 481 kts 111°
2026-05-04 18:44 -28.62933 -105.26537 33242 ft 481 kts 111°
2026-05-04 18:45 -28.65024 -105.19311 33234 ft 481 kts 111°
2026-05-04 18:45 -28.67109 -105.12079 33227 ft 481 kts 111°
2026-05-04 18:46 -28.69196 -105.04844 33234 ft 481 kts 112°
2026-05-04 18:46 -28.71270 -104.97643 33214 ft 482 kts 112°
2026-05-04 18:47 -28.73366 -104.90374 33223 ft 483 kts 112°
2026-05-04 18:47 -28.75459 -104.83084 33222 ft 484 kts 112°
2026-05-04 18:48 -28.77538 -104.75789 33215 ft 484 kts 112°
2026-05-04 18:48 -28.79614 -104.68479 33211 ft 484 kts 112°
2026-05-04 18:49 -28.81692 -104.61174 33210 ft 485 kts 112°
2026-05-04 18:49 -28.83774 -104.53853 33211 ft 485 kts 112°
2026-05-04 18:50 -28.85850 -104.46530 33205 ft 485 kts 112°
2026-05-04 18:50 -28.87919 -104.39202 33208 ft 485 kts 112°
2026-05-04 18:51 -28.89970 -104.31920 33210 ft 485 kts 111°
2026-05-04 18:51 -28.92033 -104.24582 33210 ft 485 kts 111°
2026-05-04 18:52 -28.94094 -104.17251 33214 ft 485 kts 112°
2026-05-04 18:52 -28.96150 -104.09916 33214 ft 485 kts 112°
2026-05-04 18:53 -28.98194 -104.02573 33212 ft 485 kts 112°
2026-05-04 18:53 -29.00235 -103.95237 33203 ft 485 kts 112°
2026-05-04 18:54 -29.02280 -103.87896 33202 ft 485 kts 112°
2026-05-04 18:54 -29.04322 -103.80547 33211 ft 485 kts 112°
2026-05-04 18:55 -29.06357 -103.73197 33201 ft 485 kts 112°
2026-05-04 18:55 -29.09392 -103.62165 33193 ft 485 kts 112°
2026-05-04 18:56 -29.11409 -103.54848 33192 ft 485 kts 112°
2026-05-04 18:56 -29.13431 -103.47480 33205 ft 485 kts 112°
2026-05-04 18:57 -29.15448 -103.40110 33203 ft 486 kts 112°
2026-05-04 18:57 -29.17463 -103.32720 33180 ft 487 kts 112°
2026-05-04 18:58 -29.19489 -103.25311 33177 ft 488 kts 112°
2026-05-04 18:58 -29.21512 -103.17891 33173 ft 489 kts 112°
2026-05-04 18:59 -29.23527 -103.10448 33190 ft 489 kts 112°
2026-05-04 18:59 -29.25527 -103.03045 33184 ft 489 kts 112°
2026-05-04 19:00 -29.27539 -102.95600 33180 ft 489 kts 112°
2026-05-04 19:00 -29.29547 -102.88152 33175 ft 490 kts 112°
2026-05-04 19:01 -29.31546 -102.80688 33175 ft 490 kts 112°
2026-05-04 19:01 -29.33541 -102.73221 33192 ft 490 kts 113°
2026-05-04 19:02 -29.35534 -102.65760 33187 ft 489 kts 113°
2026-05-04 19:02 -29.37529 -102.58301 33181 ft 489 kts 113°
2026-05-04 19:03 -29.39499 -102.50892 33175 ft 489 kts 113°
2026-05-04 19:03 -29.41476 -102.43430 33170 ft 489 kts 112°
2026-05-04 19:04 -29.43451 -102.35965 33185 ft 489 kts 113°
2026-05-04 19:04 -29.45422 -102.28507 33176 ft 488 kts 113°
2026-05-04 19:05 -29.47385 -102.21047 33171 ft 488 kts 113°
2026-05-04 19:05 -29.49343 -102.13584 33165 ft 488 kts 113°
2026-05-04 19:06 -29.51296 -102.06121 33162 ft 488 kts 113°
2026-05-04 19:06 -29.53248 -101.98653 33173 ft 488 kts 113°
2026-05-04 19:07 -29.55990 -101.88109 33163 ft 487 kts 113°
2026-05-04 19:07 -29.63730 -101.58239 33164 ft 488 kts 113°
2026-05-04 19:08 -29.71388 -101.28300 33159 ft 488 kts 114°
2026-05-04 19:08 -29.78952 -100.98432 33128 ft 489 kts 114°
2026-05-04 19:09 -29.86488 -100.68307 33125 ft 490 kts 113°
2026-05-04 19:09 -29.94007 -100.38080 33111 ft 490 kts 114°
2026-05-04 19:10 -30.01433 -100.07782 33125 ft 492 kts 115°
2026-05-04 19:10 -30.08865 -99.77353 33115 ft 494 kts 115°
2026-05-04 19:11 -30.16263 -99.46760 33083 ft 494 kts 115°
2026-05-04 19:11 -30.23586 -99.16089 33072 ft 495 kts 115°
2026-05-04 19:12 -30.34491 -98.69851 33089 ft 497 kts 115°
2026-05-04 19:13 -30.41684 -98.38866 33068 ft 498 kts 115°
2026-05-04 19:13 -30.48849 -98.07720 33029 ft 500 kts 114°
2026-05-04 19:14 -30.55938 -97.76442 33016 ft 502 kts 114°
2026-05-04 19:14 -30.62968 -97.45168 32999 ft 505 kts 114°
2026-05-04 19:15 -30.69990 -97.13446 33001 ft 507 kts 114°
2026-05-04 19:15 -30.76943 -96.81657 33012 ft 508 kts 113°
2026-05-04 19:16 -30.83874 -96.49649 32973 ft 512 kts 112°
2026-05-04 19:16 -30.90760 -96.17331 32961 ft 516 kts 111°
2026-05-04 19:17 -30.97593 -95.84736 33015 ft 512 kts 111°
2026-05-04 19:17 -31.00945 -95.68685 33182 ft 503 kts 110°
2026-05-04 19:17 -31.03464 -95.56531 33100 ft 501 kts 109°
2026-05-04 19:17 -31.04269 -95.52613 32931 ft 503 kts 109°
2026-05-04 19:18 -31.05097 -95.48590 32969 ft 507 kts 110°
2026-05-04 19:18 -31.06814 -95.40258 33002 ft 520 kts 109°
2026-05-04 19:18 -31.09250 -95.28351 33041 ft 525 kts 108°
2026-05-04 19:18 -31.10100 -95.24187 32919 ft 529 kts 108°
2026-05-04 19:19 -31.10955 -95.20007 32951 ft 530 kts 108°
2026-05-04 19:19 -31.12664 -95.11621 32938 ft 531 kts 108°
2026-05-04 19:20 -31.16094 -94.94541 32955 ft 531 kts 107°
2026-05-04 19:20 -31.22722 -94.60629 32869 ft 539 kts 107°
2026-05-04 19:21 -31.26825 -94.39514 32908 ft 538 kts 106°
2026-05-04 19:21 -31.28476 -94.30949 32917 ft 540 kts 105°
2026-05-04 19:22 -31.30111 -94.22384 32913 ft 540 kts 105°
2026-05-04 19:22 -31.31731 -94.13851 32908 ft 541 kts 105°
2026-05-04 19:23 -31.33370 -94.05249 32902 ft 542 kts 105°
2026-05-04 19:23 -31.35009 -93.96631 32895 ft 541 kts 105°
2026-05-04 19:24 -31.36623 -93.88062 32886 ft 541 kts 105°
2026-05-04 19:24 -31.37967 -93.80904 32891 ft 541 kts 104°